Lethbridge,

11:17 AM MDT on September 20, 2017 (GMT -0600)
Lethbridge

Weather History for CYQL - April, 2014

Change the Weather History Date:

Saturday, April 5, 2014

  Actual Average Record
Temperature  
Mean Temperature 42 °F -  
Max Temperature 53 °F 44 °F 62 °F (2004)
Min Temperature 32 °F 23 °F -27 °F (2013)
Degree Days  
Heating Degree Days 22    
Moisture  
Dew Point 25 °F    
Average Humidity 50    
Maximum Humidity 80    
Minimum Humidity 22    
Precipitation  
Precipitation 0.00 in - - ()
Sea Level Pressure  
Sea Level Pressure 29.81 in    
Wind  
Wind Speed 18 mph ()    
Max Wind Speed 33 mph    
Max Gust Speed 45 mph    
Visibility 10.8 miles    
Events      
Averages and records for this station are not official NWS values.
T = Trace of Precipitation, MM = Missing Value Source: Averaged Metar Reports

Daily Weather History Graph

Daily Weather History Graph

Search for Another Location

Airport or City:

Trip Planner

Search our weather history database for the weather conditions in past years. The results will help you decide how hot, cold, wet, or windy it might be!

Date:

Astronomy

Apr. 05, 2014 Rise Set
Actual Time 6:59 AM MDT 8:09 PM MDT
Civil Twilight 6:26 AM MDT 8:42 PM MDT
Nautical Twilight 5:47 AM MDT 9:21 PM MDT
Astronomical Twilight 5:04 AM MDT 10:04 PM MDT
Moon 10:50 AM MDT (4/5) 1:41 AM MDT (4/5)
Length of Visible Light 14h 15m
Length of Day
13h 09m
Waxing Crescent, 35% of the Moon is Illuminated
Apr 5
Waxing Crescent
Apr 7
First Quarter
Apr 15
Full
Apr 22
Last Quarter
Apr 29
New

Hourly Weather History & Observations

Time (MDT) Temp. Windchill Dew Point Humidity Pressure Visibility Wind Dir Wind Speed Gust Speed Precip Events Conditions
1:00 AM 37.4 °F 28.5 °F 26.6 °F 65% 29.75 in 9.0 mi WSW 15.0 mph 21.9 mph N/A   Clear
3:00 AM 33.8 °F 24.3 °F 26.6 °F 75% 29.77 in 9.0 mi SW 13.8 mph - N/A   Clear
5:00 AM 33.8 °F 24.3 °F 26.6 °F 75% 29.79 in 9.0 mi WSW 13.8 mph - N/A   Mostly Cloudy
6:00 AM 33 °F - 26 °F 68% 29.81 in 10 mi West 13.8 mph - -  
6:00 AM 32.0 °F 21.6 °F 26.6 °F 80% 29.81 in 15.0 mi West 15.0 mph - N/A   Partly Cloudy
7:00 AM 33.8 °F 23.9 °F 26.6 °F 75% 29.82 in 40.0 mi West 15.0 mph - N/A   Scattered Clouds
8:00 AM 37.4 °F 28.2 °F 26.6 °F 65% 29.83 in 40.0 mi West 16.1 mph - N/A   Scattered Clouds
9:00 AM 42.8 °F 34.8 °F 28.4 °F 57% 29.83 in 40.0 mi West 17.3 mph - N/A   Scattered Clouds
10:00 AM 46.4 °F 38.5 °F 26.6 °F 46% 29.83 in 40.0 mi West 21.9 mph 27.6 mph N/A   Partly Cloudy
11:00 AM 50.0 °F - 26.6 °F 40% 29.83 in 40.0 mi West 25.3 mph 32.2 mph N/A   Partly Cloudy
12:00 PM 51.8 °F - 24.8 °F 35% 29.82 in 40.0 mi West 25.3 mph 32.2 mph N/A   Partly Cloudy
1:00 PM 51.8 °F - 23.0 °F 33% 29.82 in 40.0 mi West 20.7 mph 32.2 mph N/A   Scattered Clouds
2:00 PM 51.8 °F - 23.0 °F 33% 29.81 in 40.0 mi West 26.5 mph 36.8 mph N/A   Mostly Cloudy
3:00 PM 51.8 °F - 21.2 °F 30% 29.81 in 30.0 mi WSW 31.1 mph 40.3 mph N/A   Mostly Cloudy
4:00 PM 51.8 °F - 23.0 °F 33% 29.80 in 40.0 mi West 32.2 mph 44.9 mph N/A   Mostly Cloudy
5:00 PM 51.8 °F - 24.8 °F 35% 29.79 in 40.0 mi West 27.6 mph 38.0 mph N/A   Mostly Cloudy
6:00 PM 50 °F - 23 °F 22% 29.80 in 10 mi West 32.2 mph - -  
6:00 PM 50.0 °F - 23.0 °F 35% 29.80 in 40.0 mi West 33.4 mph 42.6 mph N/A   Mostly Cloudy
7:00 PM 46.4 °F 37.7 °F 24.8 °F 43% 29.80 in 40.0 mi West 26.5 mph 38.0 mph N/A   Mostly Cloudy
8:00 PM 44.6 °F 35.7 °F 26.6 °F 49% 29.81 in 40.0 mi WSW 24.2 mph 31.1 mph N/A   Scattered Clouds
9:00 PM 41.0 °F 30.0 °F 26.6 °F 57% 29.80 in 40.0 mi WSW 28.8 mph 35.7 mph N/A   Scattered Clouds
10:00 PM 41.0 °F 30.0 °F 24.8 °F 53% 29.79 in 15.0 mi WSW 28.8 mph 36.8 mph N/A   Mostly Cloudy
11:00 PM 41.0 °F 31.4 °F 26.6 °F 57% 29.80 in 9.0 mi WSW 21.9 mph 33.4 mph N/A   Scattered Clouds